Regional Weather Roundup
Issued by NWS Sioux Falls, SD

Home | Current Version | Previous Version | Text Only | Print | Product List | Glossary On
Versions: 1 2 3 4 5 6 7 8 9 10 11 12 13 14 15 16 17 18 19 20 21 22 23 24 25 26 27 28 29 30 31 32 33 34 35 36 37 38 39 40 41 42 43 44 45 46 47 48 49 50
000
ASUS43 KFSD 280510
RWRFSD

WEATHER ROUNDUP FOR SE SOUTH DAKOTA/SW MINNESOTA/NW IOWA
NATIONAL WEATHER SERVICE SIOUX FALLS SD
1200 AM CDT THU MAY 28 2015

NOTE: "FAIR" INDICATES FEW OR NO CLOUDS BELOW 12,000 FEET WITH NO
SIGNIFICANT WEATHER AND OR OBSTRUCTIONS TO VISIBILITY.


SDZ038>040-050-052>070-280600-
SOUTHEAST SOUTH DAKOTA

CITY           SKY/WX    TMP DP  RH WIND       PRES   REMARKS
BROOKINGS      MOCLDY    66  54  63 SE9       30.03S
CHAMBERLAIN    MOCLDY    65  54  67 S9        29.98R
HURON            N/A    N/A N/A N/A MISG      29.97S
MADISON        CLOUDY    64  54  68 S5        30.04R
MITCHELL       MOCLDY    67  56  67 S8        29.99S
SIOUX FALLS    PTCLDY    67  51  56 S8        30.03R
WINNER         FAIR      68  53  58 S9        29.98R
YANKTON        MOCLDY    70  46  43 S7        30.01S
$$

MNZ071-072-080-081-089-090-097-098-280600-
SOUTHWEST MINNESOTA

CITY           SKY/WX    TMP DP  RH WIND       PRES   REMARKS
FAIRMONT       CLEAR     66  52  59 SW7       30.05R
JACKSON        CLEAR     64  54  68 S6        30.07R
LUVERNE        PTCLDY    63  54  72 S3        30.05R
MARSHALL       MOCLDY    66  50  55 SW8       30.01S
MONTEVIDEO     MOCLDY    70  52  52 S6        30.02R
REDWOOD FALLS  PTCLDY    69  54  58 S3        30.01S
TRACY          PTCLDY    67  52  59 SW8       30.03S
WINDOM         PTCLDY    64  54  68 CALM      30.05S
WORTHINGTON    CLEAR     66  48  52 S9        30.06R
$$

IAZ001>003-012>014-020>022-031-032-NEZ013-014-SDZ071-280600-
NORTHWEST IOWA

CITY           SKY/WX    TMP DP  RH WIND       PRES   REMARKS
CHEROKEE       PTCLDY    59  58  96 CALM      30.07R
DENISON        PTCLDY    68  54  60 CALM      30.07R
ESTHERVILLE    CLEAR     63  55  75 S8        30.06R
LE MARS        PTCLDY    66  54  63 S7        30.06S
ORANGE CITY    CLEAR     64  52  63 CALM      30.06S
SHELDON        CLEAR     64  54  68 S7        30.05R
SIOUX CITY     MOCLDY    63  53  70 E9        30.05S
SPENCER        CLEAR     64  54  69 S9        30.07R
STORM LAKE     PTCLDY    64  52  63 S7        30.09R
$$

ABBREVIATIONS USED IN REMARKS
   TC - TEMPERATURE IN CELSIUS
  WCI - WIND CHILL INDEX
   HX - HEAT INDEX
  VSB - VISIBILITY



USA.gov is the U.S. government's official web portal to all federal, state and local government web resources and services.